Location: Breitenstein
(49.5993°N, 11.6471°E)
Time: 09:31:35
(UTC+00:00)

Daily predictions for brighter satellites

Satellite Brightness Start Highest point End
(mag) Time Altitude Azimuth Time Altitude Azimuth Time Altitude Azimuth
Meteor 2-4 Rocket 3.6 19:42:53 10° S 19:48:14 86° E 19:53:39 10° NNE
STARLINK-1202 3.6 19:44:40 10° SW 19:48:47 68° SSE 19:52:55 10° ENE
NOSS 3-1 (A) 4.4 19:44:00 10° WSW 19:49:35 53° NW 19:56:11 10° NE
NOSS 2-2 (E) 4.4 19:47:07 10° SSE 19:49:55 21° ESE 19:52:57 10° ENE
STARLINK-1125 4.5 19:46:11 10° WNW 19:50:04 40° SW 19:53:56 10° SSE
EXPRESS MD2 4.1 19:48:06 10° SSW 19:50:47 29° SE 19:55:15 10° E
STARLINK-1254 4.3 19:47:28 10° W 19:51:34 60° NNW 19:55:41 10° ENE
STARLINK-1098 3.7 19:48:20 10° WNW 19:52:30 83° NNE 19:56:39 10° ESE
Cosmos 1833 Rocket 3.5 19:47:13 10° NW 19:52:36 48° WSW 19:57:57 10° S
Cosmos 2297 4.2 19:49:40 10° S 19:54:52 39° ESE 20:00:08 10° NE
Cosmos 1943 Rocket 3.6 19:51:51 10° SE 19:55:34 19° E 19:59:18 10° ENE
STARLINK-1231 4.3 19:52:27 10° W 19:56:33 58° N 20:00:40 10° ENE
STARLINK-1123 3.7 19:53:18 10° WNW 19:57:28 86° NNE 20:01:37 10° ESE
STARLINK-1246 3.6 19:54:36 10° WSW 19:58:44 76° SSE 20:02:54 10° ENE
Cosmos 2082 Rocket 2.5 19:53:39 10° NNW 19:59:21 67° WSW 20:04:59 10° SSE
IGS 5A 3.7 19:56:10 10° SSE 20:00:14 57° ENE 20:04:21 10° N
Cosmos 1420 Rocket 4.3 19:56:02 10° SSW 20:01:14 75° WNW 20:06:27 10° NNE
Cosmos 1452 Rocket 3.5 19:56:12 10° SSW 20:01:29 81° ESE 20:06:48 10° NNE
STARLINK-1232 4.3 19:57:28 10° W 20:01:34 57° N 20:05:40 10° ENE
Cosmos 332 Rocket 3.8 19:56:55 10° S 20:01:46 65° ESE 20:06:38 10° NNE
BREEZE-M DEB 3.9 20:00:04 10° S 20:01:50 17° SE 20:04:33 10° E
Intercosmos 24 3.8 19:58:32 10° NNW 20:02:08 79° W 20:05:54 10° S
STARLINK-1097 3.6 19:58:18 10° WNW 20:02:28 90° W 20:06:38 10° ESE
Landsat 7 4.0 19:58:33 10° SSE 20:03:15 65° ENE 20:07:59 10° N
STARLINK-1224 3.6 19:59:34 10° WSW 20:03:42 80° SSE 20:07:52 10° ENE
STARLINK-1208 4.4 20:02:27 10° W 20:06:32 56° N 20:10:38 10° ENE
STARLINK-1099 3.6 20:03:17 10° WNW 20:07:26 86° SSW 20:11:36 10° ESE
Cosmos 1461 3.0 20:04:02 10° SSW 20:08:05 54° ESE 20:12:22 10° NE
STARLINK-1225 3.6 20:04:33 10° WSW 20:08:42 84° SSE 20:12:52 10° ENE
Okean 3 4.1 20:06:00 10° SSW 20:10:15 59° WNW 20:14:32 10° N
SAR-Lupe-2 3.9 20:07:06 10° NNE 20:10:37 48° E 20:14:06 10° S
Cosmos 2369 Rocket 3.7 20:07:44 10° SE 20:11:28 18° E 20:15:13 10° ENE
STARLINK-1271 4.4 20:07:29 10° W 20:11:34 55° N 20:15:39 10° ENE
STARLINK-1104 3.6 20:08:15 10° WNW 20:12:25 82° SSW 20:16:33 10° ESE
STARLINK-1230 3.6 20:09:32 10° WSW 20:13:40 88° SSE 20:17:50 10° ENE
STARLINK-1212 4.1 20:10:42 10° WNW 20:13:42 42° N 20:16:41 10° ENE
STARLINK-1105 4.1 20:11:10 10° WNW 20:14:10 42° N 20:17:09 10° ENE
NOSS 2-2 (C) 4.0 20:11:16 10° S 20:14:23 28° ESE 20:17:46 10° ENE
STARLINK-1247 4.0 20:12:03 10° WNW 20:15:04 43° N 20:18:04 10° ENE
STARLINK-1227 4.0 20:12:33 10° WNW 20:15:32 43° N 20:18:32 10° ENE
STARLINK-1226 4.0 20:13:24 10° WNW 20:16:25 43° N 20:19:25 10° ENE
STARLINK-1154 4.4 20:12:29 10° W 20:16:34 54° N 20:20:39 10° ENE
SL-4 R/B 3.9 20:15:30 10° W 20:16:59 13° WSW 20:18:24 10° SW
STARLINK-1215 4.0 20:14:18 10° WNW 20:17:19 43° N 20:20:19 10° E
STARLINK-1144 3.6 20:13:14 10° WNW 20:17:24 78° SSW 20:21:27 10° ESE
Cosmos 2221 Rocket 4.4 20:13:42 10° SSW 20:18:09 55° WNW 20:22:39 10° N
ATLAS 2AS CENTAUR R/B 4.3 20:13:33 10° SE 20:18:34 18° ESE 20:23:36 10° ENE
STARLINK-1243 3.6 20:14:31 10° WSW 20:18:40 88° NNW 20:22:50 10° ENE
STARLINK-1217 4.0 20:16:07 10° WNW 20:19:08 43° N 20:22:09 10° E
SPOT 5 3.5 20:14:18 10° SE 20:19:23 52° ENE 20:24:35 10° N
NOSS 3-2 (A) 4.2 20:12:12 10° NW 20:19:29 69° NE 20:27:47 10° SE
STARLINK-1229 4.0 20:17:02 10° WNW 20:20:02 43° N 20:23:04 10° E
STARLINK-1270 4.0 20:17:55 10° WNW 20:20:57 43° N 20:23:58 10° E
STARLINK-1197 4.5 20:17:28 10° W 20:21:32 53° N 20:25:37 10° ENE
NOSS 8 (F) 4.1 20:18:27 10° SW 20:21:39 87° SE 20:24:43 10° NE
Meteor 1-13 Rocket 4.4 20:16:10 10° SSW 20:21:48 79° WNW 20:27:37 10° N
STARLINK-1103 3.6 20:18:13 10° WNW 20:22:21 73° SSW 20:26:14 12° ESE
STARLINK-1189 4.0 20:19:43 10° WNW 20:22:45 44° N 20:25:46 10° E
STARLINK-1236 3.7 20:19:29 10° WSW 20:23:38 84° NNW 20:27:48 10° ENE
STARLINK-1188 4.0 20:20:38 10° WNW 20:23:39 44° N 20:26:41 10° E
ERS-1 Rocket 3.1 20:19:40 10° SSE 20:24:33 64° ENE 20:29:33 10° N
STARLINK-1187 3.9 20:21:44 10° WNW 20:24:45 45° N 20:27:45 10° E
STARLINK-1191 4.0 20:23:05 10° WNW 20:26:06 44° N 20:29:06 10° E
STARLINK-1198 4.5 20:22:28 10° W 20:26:32 53° N 20:30:36 10° ENE
STARLINK-1221 4.0 20:24:03 10° WNW 20:27:03 44° N 20:30:03 10° E
STARLINK-1101 3.7 20:23:12 10° WNW 20:27:19 69° SSW 20:31:00 13° SE
STARLINK-1222 3.9 20:24:54 10° WNW 20:27:54 44° N 20:30:55 10° E
STARLINK-1214 3.9 20:25:47 10° WNW 20:28:49 44° N 20:31:49 10° E
Cosmos 1066 Rocket 4.1 20:24:05 10° S 20:29:25 68° E 20:34:45 10° NNE
USA 245 3.1 20:28:06 10° S 20:30:59 48° WSW 20:33:27 10° NNW
USA 238 DEB 4.0 20:24:15 10° NW 20:31:26 76° NE 20:38:25 12° SE
USA 238 4.0 20:24:21 10° NW 20:31:32 75° NE 20:38:32 12° SE
STARLINK-1199 4.5 20:27:29 10° W 20:31:33 52° N 20:35:37 10° ENE
STARLINK-1102 3.7 20:28:11 10° WNW 20:32:18 65° SSW 20:35:48 14° SE
STARLINK-1228 3.9 20:29:51 10° WNW 20:33:18 53° N 20:36:45 10° E
STARLINK-1269 3.8 20:29:28 10° WSW 20:33:37 77° NNW 20:37:46 10° ENE
Okean 1 Rocket 3.1 20:29:10 10° N 20:33:40 90° NW 20:37:54 11° S
Cosmos 1805 3.5 20:30:04 10° N 20:33:57 57° ENE 20:37:07 15° SSE
Cosmos 2278 Rocket 3.7 20:29:16 10° WSW 20:34:39 42° NW 20:40:03 10° NNE
TSX-5 4.3 20:29:11 10° SSW 20:34:42 89° SE 20:38:57 10° NNE
Resurs 01 Rocket 3.4 20:30:51 10° SSW 20:34:42 28° W 20:38:34 10° NW
Nadezhda 4 Rocket 4.0 20:29:47 10° S 20:35:52 72° E 20:41:59 10° NNE
STARLINK-1210 4.5 20:32:28 10° W 20:36:32 52° N 20:40:36 10° ENE
STARLINK-1235 3.8 20:33:30 10° WNW 20:36:40 51° N 20:39:50 10° E
STARLINK-1111 3.8 20:33:10 10° WNW 20:37:16 61° SSW 20:40:34 15° SE
STARLINK-1200 3.9 20:34:26 10° WSW 20:38:35 74° NNW 20:42:44 10° ENE
Cosmos 1455 Rocket 4.0 20:35:15 10° N 20:39:12 33° ENE 20:42:18 15° SE
STARLINK-1219 4.5 20:37:28 10° W 20:41:32 52° N 20:45:36 10° ENE
STARLINK-1073 3.8 20:38:09 10° WNW 20:42:14 57° SSW 20:45:22 16° SE
SL-8 R/B 4.0 20:37:47 10° W 20:42:27 51° SSW 20:46:16 15° SE
STARLINK-1192 3.9 20:39:26 10° WSW 20:43:35 71° NNW 20:47:44 10° ENE
ATLAS CENTAUR R/B 3.7 20:45:17 10° NNW 20:45:51 11° N 20:46:24 10° NNE
STARLINK-1211 4.5 20:42:29 10° WNW 20:46:33 52° N 20:50:37 10° ENE
ATLAS 3B CENTAUR R/B 4.4 20:39:27 10° SW 20:47:09 18° SSW 20:50:57 13° SSE
STARLINK-1121 3.9 20:43:09 10° WNW 20:47:12 54° SSW 20:50:08 17° SE
SL-4 R/B 3.5 20:44:21 10° S 20:48:05 23° SE 20:51:54 10° E
Terra 2.0 20:44:22 15° SSE 20:48:13 65° ENE 20:52:57 10° N
Cosmos 1110 Rocket 3.9 20:43:13 10° SSW 20:48:24 82° ESE 20:53:37 10° NNE
STARLINK-1244 4.0 20:44:25 10° W 20:48:34 69° NNW 20:52:42 10° ENE
Spot 2 Rocket 4.4 20:44:47 10° S 20:49:35 45° W 20:54:26 10° NNW
SPOT 1/Viking Rocket 3.9 20:45:18 10° S 20:50:24 60° WSW 20:55:31 10° NNW
Abrixas rocket 3.3 20:48:20 10° W 20:50:47 24° SSW 20:51:50 19° S
Cosmos 1842 4.1 20:48:52 18° SSE 20:51:14 34° E 20:54:46 10° NNE
CARTOSAT-1 3.6 20:47:49 14° S 20:51:30 80° WSW 20:55:51 10° NNW
STARLINK-1245 4.5 20:47:28 10° WNW 20:51:32 52° N 20:55:36 10° ENE
STARLINK-1106 4.0 20:48:09 10° WNW 20:52:10 50° SSW 20:54:56 19° SE
NOSS 8 (H) 4.3 20:49:42 10° SW 20:52:48 76° NW 20:55:54 10° NE
STARLINK-1138 4.0 20:49:26 10° W 20:53:33 66° NNW 20:57:41 10° ENE
STARLINK-1234 3.5 20:51:16 10° WNW 20:54:31 60° NNE 20:57:43 10° E
STARLINK-1233 4.5 20:52:26 10° WNW 20:56:30 52° N 21:00:34 10° E
STARLINK-1112 4.1 20:53:07 10° WNW 20:57:07 47° SW 20:59:42 20° SSE
STARLINK-1143 4.1 20:54:24 10° W 20:58:31 64° NNW 21:02:39 10° ENE
STARLINK-1209 3.3 20:57:14 10° WNW 21:00:31 65° NNE 21:03:27 12° E
STARLINK-1204 4.4 20:57:27 10° WNW 21:01:31 52° N 21:05:35 10° E
STARLINK-1128 4.2 20:58:07 10° WNW 21:02:04 44° SW 21:04:28 21° SSE
STARLINK-1241 4.1 20:59:27 10° W 21:03:33 62° NNW 21:07:41 10° ENE
SWAS 4.4 20:59:31 10° NNW 21:03:52 84° WSW 21:06:45 21° SSE
Cosmos 1331 Rocket 4.1 21:00:03 10° SSW 21:05:12 82° WNW 21:10:26 10° NNE
Aureole 2 Rocket 3.8 21:03:12 10° SW 21:06:02 33° WNW 21:08:45 10° N
STARLINK-1238 4.4 21:02:28 10° WNW 21:06:32 52° N 21:10:36 10° E
STARLINK-1113 4.3 21:03:07 10° WNW 21:07:02 41° SW 21:09:15 22° SSE
Cosmos 1733 3.1 21:03:14 10° N 21:07:05 90° E 21:09:32 21° S
STARLINK-1239 4.2 21:04:26 10° W 21:08:32 61° NNW 21:12:39 10° ENE
STARLINK-1201 4.4 21:07:27 10° WNW 21:11:32 53° N 21:15:36 10° E
COSMOS 2455 4.3 21:09:45 16° SE 21:11:49 19° ESE 21:15:57 10° ENE
STARLINK-1119 4.4 21:08:09 10° WNW 21:12:00 38° SW 21:14:04 22° SSE
Cosmos 1378 3.5 21:09:41 11° SSW 21:13:10 62° WNW 21:16:52 10° N
STARLINK-1240 4.2 21:09:25 10° W 21:13:31 59° N 21:17:37 10° ENE
Cosmos 1486 Rocket 4.1 21:09:17 10° NNW 21:14:37 74° ENE 21:18:13 21° SSE
USA 215 3.9 21:08:53 10° E 21:15:17 58° NNE 21:21:40 10° WNW
Cosmos 1302 Rocket 4.0 21:10:13 11° S 21:15:18 69° ESE 21:20:35 10° NNE
Cosmos 1271 Rocket 3.8 21:14:22 22° SE 21:15:56 29° E 21:19:23 10° NNE
Cosmos 1544 Rocket 3.8 21:11:50 10° N 21:16:07 55° ENE 21:18:39 23° SSE
STARLINK-1206 4.4 21:12:28 10° WNW 21:16:33 54° N 21:20:37 10° E
STARLINK-1114 4.5 21:13:08 10° WNW 21:16:56 35° SW 21:18:49 23° S
Cosmos 1242 Rocket 3.2 21:15:26 25° SSE 21:17:04 41° E 21:20:34 10° NNE
MTI 3.7 21:14:16 10° NNE 21:17:25 67° ESE 21:18:58 26° S
STARLINK-1203 4.3 21:14:15 10° W 21:18:24 58° N 21:22:34 10° ENE
STARLINK-1216 4.3 21:14:24 10° W 21:18:29 58° N 21:22:36 10° ENE
Lacrosse 5 4.3 21:18:04 10° WSW 21:18:48 10° WSW 21:19:32 10° SW
STARLINK-60 3.7 21:20:10 30° SE 21:20:10 30° SE 21:22:50 10° E
Cosmos 1092 Rocket 4.0 21:15:30 11° S 21:21:25 85° W 21:27:37 10° N
STARLINK-1205 4.3 21:17:26 10° WNW 21:21:31 54° N 21:25:36 10° E
NOSS 2-2 (D) 3.5 21:19:05 10° SW 21:22:39 70° NW 21:26:49 10° NE
STARLINK-1237 4.3 21:19:24 10° W 21:23:30 56° N 21:27:36 10° ENE
CENTAUR R/B 3.2 21:16:04 10° NW 21:24:02 86° NE 21:31:08 17° SE
Cosmos 1707 3.8 21:24:35 23° SE 21:26:02 30° E 21:29:29 10° NNE
STARLINK-1218 4.3 21:22:27 10° WNW 21:26:32 55° N 21:30:38 10° E
ATLAS 3B R/B 3.3 21:20:38 10° NW 21:27:15 54° NE 21:33:57 10° ESE
SL-27 R/B 2.6 21:24:12 10° NNW 21:27:47 67° WSW 21:29:28 28° S
STARLINK-1202 4.4 21:24:25 10° W 21:28:30 55° N 21:32:35 10° ENE
NOSS 3-2 (C) 4.1 21:21:48 10° NW 21:29:16 83° SW 21:35:37 19° SE
Cosmos 1766 4.3 21:26:15 10° NNW 21:29:59 40° W 21:32:47 16° SSW
Cosmos 1726 3.6 21:27:58 10° NNE 21:31:11 27° ENE 21:32:50 20° ESE
STARLINK-1254 4.3 21:27:26 10° WNW 21:31:32 56° N 21:35:37 10° E
ALOS 2 4.2 21:30:24 14° ESE 21:33:08 25° ENE 21:36:43 10° N
Cosmos 1867 3.8 21:28:44 10° NW 21:34:13 69° NE 21:38:07 19° SE
COSMOS 2487 3.9 21:32:16 10° N 21:35:21 28° ENE 21:37:03 19° ESE
STARLINK-1231 4.2 21:32:24 10° WNW 21:36:31 58° N 21:40:37 10° E
STARLINK-1246 4.4 21:34:26 10° W 21:38:31 54° N 21:42:35 10° ENE
Cosmos 1943 Rocket 2.2 21:33:03 10° SSW 21:38:37 80° WNW 21:44:16 10° NNE
Cosmos 1992 Rocket 4.4 21:36:08 24° SSE 21:38:54 45° ESE 21:43:51 10° NE
NOSS 3-4 (A) 3.8 21:36:32 20° S 21:40:09 41° ESE 21:46:01 10° NE
NOSS 3-4 (C) 3.8 21:36:40 20° S 21:40:16 41° ESE 21:46:07 10° NE
STARLINK-1232 4.2 21:37:25 10° WNW 21:41:31 59° N 21:45:38 10° E
SeaSat 1 3.1 21:37:58 10° NE 21:42:32 36° ESE 21:44:34 26° SSE
EO 1 Del DPAF 3.7 21:39:33 10° NNE 21:43:12 43° E 21:44:29 31° SSE
STARLINK-1224 4.4 21:39:26 10° W 21:43:30 53° N 21:47:34 10° ENE
STARLINK-1208 4.1 21:42:23 10° WNW 21:46:30 60° NNE 21:50:37 10° E
Cosmos 1975 Rocket 3.7 21:44:36 14° SSW 21:48:13 52° WNW 21:52:33 10° N
STARLINK-1225 4.5 21:44:27 10° W 21:48:31 52° N 21:52:35 10° ENE
STARLINK-1212 2.7 21:46:35 10° WNW 21:49:42 86° SSW 21:50:47 38° ESE
STARLINK-1105 2.7 21:47:04 10° WNW 21:50:11 85° SSW 21:51:13 38° ESE
Meteor 2-10 4.1 21:45:58 10° N 21:50:59 64° ENE 21:53:43 27° SSE
STARLINK-1247 2.7 21:47:56 10° WNW 21:51:04 84° SSW 21:52:06 39° ESE
STARLINK-1271 4.1 21:47:24 10° WNW 21:51:31 62° NNE 21:55:38 10° E
STARLINK-1227 2.7 21:48:25 10° WNW 21:51:32 84° SSW 21:52:32 40° ESE
Cosmos 292 Rocket 3.7 21:48:20 19° SSW 21:51:51 87° ESE 21:56:45 10° NNE
BREEZE-M DEB (TANK) 3.3 21:39:20 10° WSW 21:52:09 78° SSE 21:55:41 10° E
STARLINK-1226 2.7 21:49:17 10° WNW 21:52:25 83° SSW 21:53:24 40° ESE
BREEZE-M DEB (TANK) 2.8 21:49:03 10° W 21:52:50 83° S 21:56:50 10° ESE
STARLINK-1215 2.7 21:50:11 10° WNW 21:53:18 82° SSW 21:54:16 41° ESE
STARLINK-1230 4.5 21:49:26 10° W 21:53:30 52° N 21:57:34 10° ENE
RESURS DK-1 4.4 21:53:57 14° ESE 21:54:03 14° ESE 21:56:14 10° ENE
Cosmos 2227 Rocket 4.5 21:50:07 10° N 21:54:06 19° NE 21:58:06 10° E
S3M 4.0 21:48:10 10° N 21:54:21 75° ENE 21:58:10 25° SSE
Cosmos 2369 Rocket 2.2 21:49:07 10° SSW 21:54:48 83° WNW 22:00:29 10° NNE
STARLINK-1217 2.7 21:52:00 10° WNW 21:55:08 80° SSW 21:56:01 43° SE
STARLINK-1229 2.7 21:52:55 10° WNW 21:56:02 79° SSW 21:56:54 44° SE
STARLINK-1154 4.0 21:52:22 10° WNW 21:56:30 64° NNE 22:00:38 10° E
STARLINK-1270 2.7 21:53:48 10° WNW 21:56:56 78° SSW 21:57:45 45° SE
Aureole 3 Rocket 4.4 21:51:54 10° NNW 21:58:00 75° W 22:03:53 21° S
STARLINK-1243 4.5 21:54:27 10° W 21:58:31 52° N 22:02:35 10° ENE
STARLINK-1189 2.7 21:55:36 10° WNW 21:58:43 76° SSW 21:59:29 47° SE
STARLINK-1188 2.7 21:56:31 10° WNW 21:59:38 75° SSW 22:00:22 48° SE
ATLAS CENTAUR R/B 2.0 21:59:35 32° SSE 22:00:38 38° ESE 22:04:29 10° NE
STARLINK-1187 2.7 21:57:37 10° WNW 22:00:42 67° SSW 22:01:14 53° SSE
Cosmos 1340 Rocket 3.2 21:56:50 10° N 22:00:50 55° ENE 22:02:31 31° SE
STARLINK-1197 3.9 21:57:20 10° WNW 22:01:29 66° NNE 22:05:37 10° E
STARLINK-1191 2.7 21:58:57 10° WNW 22:02:03 72° SSW 22:02:39 52° SE
Aureole 3 3.8 21:59:41 10° N 22:02:41 33° ENE 22:03:24 29° ESE
STARLINK-1221 2.7 21:59:54 10° WNW 22:03:00 71° SSW 22:03:34 53° SE
STARLINK-1236 4.5 21:59:26 10° WNW 22:03:30 52° N 22:07:34 10° ENE
STARLINK-1222 2.7 22:00:45 10° WNW 22:03:51 70° SSW 22:04:23 54° SSE
Thor Agena Rocket 3.5 21:58:42 10° NNE 22:04:03 79° ESE 22:07:12 25° S
STARLINK-1214 2.7 22:01:39 10° WNW 22:04:45 69° SSW 22:05:15 55° SSE
NOSS 7 (A) 4.4 22:03:59 39° SSW 22:05:00 79° SE 22:07:55 10° NE
Cosmos 1025 Rocket 2.9 22:02:57 30° S 22:05:01 85° E 22:09:21 10° N
Cosmos 1908 4.4 22:02:27 10° N 22:05:53 31° ENE 22:07:21 23° ESE
EXPRESS MD2 4.2 22:02:06 10° W 22:06:15 89° N 22:15:09 10° E
STARLINK-1198 3.9 22:02:19 10° WNW 22:06:28 69° NNE 22:10:32 10° E
Cosmos 1553 Rocket 4.2 22:01:34 10° NNW 22:07:49 69° W 22:11:43 24° S
ATLAS 2AS CENTAUR R/B 3.0 22:00:30 10° SSW 22:08:20 69° SE 22:16:13 10° NE
Cosmos 1656 Rocket 3.6 22:04:50 23° SSW 22:08:24 70° ESE 22:13:58 10° NNE
BREEZE M DEB (TANK) 1.5 22:05:30 10° W 22:08:25 87° S 22:08:33 76° E
Cosmos 1953 2.2 22:05:10 10° N 22:09:12 80° E 22:10:41 37° SSE
BREEZE-M DEB (TANK) 4.1 21:57:53 10° WNW 22:09:53 53° SW 22:11:56 30° SSE
Cosmos 1470 3.5 22:06:30 10° NNW 22:10:13 44° W 22:11:51 27° SSW
STARLINK-1228 3.3 22:07:09 10° WNW 22:10:34 53° SSW 22:11:08 46° S
STARLINK-1199 3.8 22:07:19 10° WNW 22:11:29 71° NNE 22:15:21 12° ESE
APEX 4.3 22:06:47 11° SSW 22:13:01 82° WNW 22:18:15 10° NNE
STARLINK-1235 3.1 22:09:52 10° WNW 22:13:01 51° SSW 22:13:12 50° SSW
STARLINK-1269 4.5 22:09:27 10° WNW 22:13:31 52° N 22:17:34 10° E
Cosmos 2292 Rocket 3.5 22:13:24 37° SE 22:14:12 45° E 22:17:17 10° NNE
Cosmos 968 Rocket 4.0 22:10:06 10° NNW 22:15:02 47° WSW 22:17:31 26° SSW
STARLINK-1210 3.8 22:12:17 10° WNW 22:16:28 74° NNE 22:20:07 13° ESE
STARLINK-1200 4.5 22:14:25 10° WNW 22:18:29 52° N 22:22:33 10° E
Cosmos 1655 Rocket 4.0 22:15:01 25° S 22:18:56 88° E 22:25:15 10° N
SL-4 R/B 1.5 22:20:18 44° NNE 22:20:18 44° NNE 22:22:02 10° N
STARLINK-1219 3.7 22:17:16 10° WNW 22:21:25 77° NNE 22:24:53 15° ESE
ATLAS 5 CENTAUR R/B 1.3 22:21:46 35° SSW 22:22:56 60° SE 22:25:08 10° NE
STARLINK-1192 4.4 22:19:26 10° WNW 22:23:30 52° N 22:27:34 10° E
Cosmos 1758 4.3 22:19:54 10° NNW 22:23:41 38° W 22:25:25 25° SW
STARLINK-52 3.8 22:26:27 35° ESE 22:26:27 35° ESE 22:28:41 10° ENE
STARLINK-1211 3.6 22:22:16 10° WNW 22:26:25 80° NNE 22:29:40 16° ESE
Terra 3.9 22:23:14 10° SW 22:26:26 18° W 22:29:40 10° NW
Cosmos 2228 3.5 22:22:46 10° N 22:26:55 49° ENE 22:28:36 31° SE
SL-4 R/B 2.3 22:22:31 10° WSW 22:27:19 72° SSE 22:32:09 10° ENE
Cosmos 1726 Rocket 4.3 22:23:32 10° N 22:27:40 42° ENE 22:29:31 27° SE
Meteor 2-15 4.4 22:21:32 10° N 22:27:42 83° E 22:31:06 28° SSE
STARLINK-1244 4.4 22:24:25 10° WNW 22:28:30 53° N 22:32:34 10° E
STARLINK-1234 3.9 22:27:41 10° WNW 22:30:16 34° SW 22:30:16 34° SW
STARLINK-1245 3.6 22:27:14 10° WNW 22:31:24 84° NNE 22:34:26 18° ESE
In-Cosmos 22 4.0 22:30:05 30° S 22:32:45 82° E 22:38:04 10° NNE
STARLINK-1138 4.4 22:29:25 10° WNW 22:33:30 53° N 22:37:34 10° E
STARLINK-1233 3.5 22:32:12 10° WNW 22:36:22 87° NNE 22:39:11 20° ESE
STARLINK-1209 4.2 22:33:55 10° W 22:36:13 29° WSW 22:36:13 29° WSW
Cosmos 2266 Rocket 3.9 22:33:43 27° S 22:37:12 89° E 22:43:17 10° N
STARLINK-1143 4.4 22:34:24 10° WNW 22:38:28 54° N 22:42:33 10° E
STARLINK-1204 3.5 22:37:11 10° WNW 22:41:21 89° SSW 22:43:59 22° ESE
SJ 16-02 3.6 22:39:51 10° N 22:43:10 20° NE 22:46:28 10° E
STARLINK-1241 4.3 22:39:26 10° WNW 22:43:30 55° N 22:47:35 10° E
STARLINK-1238 3.5 22:42:11 10° WNW 22:46:21 85° SSW 22:48:47 24° ESE
Meteor 2-15 Rocket 4.4 22:41:27 10° N 22:47:38 88° W 22:50:55 30° S
Cosmos 1536 Rocket 4.5 22:45:44 22° SW 22:48:05 41° WNW 22:52:15 10° N
STARLINK-1239 4.3 22:44:24 10° WNW 22:48:29 56° N 22:52:35 10° E
Helios 1B rocket 4.1 22:45:54 10° NE 22:49:02 20° E 22:50:09 18° ESE
Cosmos 1674 2.6 22:48:20 47° S 22:49:18 78° E 22:53:06 10° NNE
STARLINK-1201 3.5 22:47:10 10° WNW 22:51:19 81° SSW 22:53:33 26° ESE
STARLINK-1240 4.2 22:49:22 10° WNW 22:53:28 57° N 22:57:34 10° E
STARLINK-60 3.3 22:52:47 10° W 22:55:57 65° NNW 22:59:08 10° ENE
STARLINK-1206 3.5 22:52:10 10° WNW 22:56:18 76° SSW 22:58:21 29° SE
COSMOS 2455 2.8 22:52:50 21° SW 22:57:00 88° NW 23:03:05 10° NE
STARLINK-1375 4.5 22:58:33 28° ESE 22:58:33 28° ESE 23:01:08 10° ENE
Cosmos 2219 3.8 22:52:24 10° NNW 22:57:57 52° NE 23:02:18 16° SE
USA 215 3.2 22:52:57 17° SE 22:58:13 72° SW 23:04:47 10° WNW
STARLINK-1216 4.2 22:54:21 10° WNW 22:58:28 58° NNE 23:02:33 10° E
STARLINK-1203 4.2 22:54:26 10° WNW 22:58:35 59° N 23:02:46 10° E
STARLINK-1352 4.5 23:01:56 27° ESE 23:01:56 27° ESE 23:04:17 10° ENE
STARLINK-1350 4.4 23:01:49 31° ESE 23:01:49 31° ESE 23:04:34 10° ENE
STARLINK-1205 3.5 22:57:08 10° WNW 23:01:16 72° SSW 23:03:07 31° SE
Cosmos 2297 Rocket 3.0 22:56:44 10° NNW 23:02:12 47° NE 23:07:00 13° SE
Helios 1A 2.9 23:01:35 41° S 23:03:02 84° WSW 23:07:15 10° NNW
STARLINK-1237 4.2 22:59:21 10° WNW 23:03:28 60° NNE 23:07:34 10° E
Lacrosse 4 Rocket 3.8 23:02:18 10° NNW 23:05:46 22° NE 23:09:09 10° E
STARLINK-1218 3.5 23:02:08 10° WNW 23:06:15 68° SSW 23:07:55 34° SE
Cosmos 1726 3.6 23:03:13 10° NNW 23:06:20 25° W 23:07:20 22° WSW
STARLINK-1368 4.1 23:08:27 35° SE 23:08:27 35° SE 23:11:32 10° ENE
Cosmos 1174 4.0 23:06:36 30° WSW 23:08:03 56° NW 23:11:54 10° NNE
STARLINK-1202 4.1 23:04:20 10° WNW 23:08:28 62° NNE 23:12:34 10° E
ALOS 2 3.3 23:07:47 32° SW 23:09:15 43° W 23:13:28 10° NNW
Timation 2 Rocket 3.9 23:03:19 10° NNW 23:09:38 74° WSW 23:12:54 29° SSE
Cosmos 2058 Rocket 3.1 23:05:46 10° N 23:10:13 74° ENE 23:11:58 36° SSE
COSMOS 2487 4.0 23:07:30 10° NW 23:10:17 23° WSW 23:10:32 22° WSW
STARLINK-1254 3.5 23:07:06 10° WNW 23:11:13 64° SSW 23:12:41 37° SE
STARLINK-1369 4.0 23:11:47 38° SE 23:11:47 38° SE 23:15:01 10° ENE
CENTAUR R/B 4.1 23:07:23 10° NW 23:14:17 31° WSW 23:18:17 22° SSW
STARLINK-1372 3.9 23:15:07 41° SE 23:15:07 41° SE 23:18:32 10° ENE
STARLINK-1231 3.6 23:12:05 10° WNW 23:16:11 60° SSW 23:17:27 39° SSE
Meteor 2-5 Rocket 3.7 23:14:12 32° S 23:16:56 86° E 23:22:35 10° NNE
ATLAS 3B R/B 3.1 23:11:30 10° NW 23:17:55 46° WSW 23:21:09 28° S
STARLINK-1378 3.7 23:18:28 43° SE 23:18:28 43° SE 23:22:02 10° ENE
STARLINK-1246 4.0 23:14:19 10° WNW 23:18:28 65° NNE 23:22:35 10° E
SeaSat 1 3.5 23:15:27 10° NNE 23:20:06 42° NW 23:24:21 12° WSW
Cosmos 1606 Rocket 4.1 23:16:02 10° NNW 23:20:11 46° W 23:21:36 33° SW
SL-14 R/B 3.4 23:19:11 44° SSE 23:20:12 62° E 23:24:01 10° NNE
FALCON 9 DEB 2.9 23:20:07 48° SW 23:20:58 80° SSE 23:24:25 10° ENE
STARLINK-1232 3.6 23:17:05 10° WNW 23:21:10 56° SSW 23:22:15 41° SSE
STARLINK-1379 3.6 23:21:51 45° SSE 23:21:55 45° SSE 23:25:34 10° ENE
STARLINK-1329 3.6 23:23:14 46° SSE 23:23:22 46° SSE 23:27:03 10° ENE
STARLINK-1224 3.9 23:19:18 10° WNW 23:23:26 68° NNE 23:27:34 10° E
Meteor 2-21 4.4 23:20:59 30° S 23:24:16 85° E 23:30:30 10° N
STARLINK-29 3.2 23:24:02 24° W 23:25:50 69° NNW 23:29:02 10° ENE
STARLINK-1208 3.7 23:22:04 10° WNW 23:26:06 53° SSW 23:27:00 43° S
SL-16 R/B 4.2 23:21:23 10° ESE 23:26:30 28° ENE 23:31:38 10° N
STARLINK-1362 3.5 23:26:40 48° SSE 23:26:56 49° SSE 23:30:38 10° ENE
ATLAS CENTAUR R/B 1.3 23:26:08 10° NW 23:28:20 68° NE 23:32:28 10° ESE
STARLINK-1225 3.9 23:24:17 10° WNW 23:28:26 70° NNE 23:32:35 10° ESE
STARLINK-1373 3.5 23:30:05 49° S 23:30:30 52° SSE 23:34:14 10° ENE
NOSS 3-4 (A) 4.2 23:25:02 10° WSW 23:30:55 53° NW 23:37:19 10° NE
NOSS 3-4 (C) 4.2 23:25:07 10° WSW 23:31:01 53° NW 23:37:25 10° NE
STARLINK-1271 3.8 23:27:05 10° WNW 23:31:06 49° SSW 23:31:49 43° S
RESURS DK-1 2.5 23:29:48 34° SW 23:31:31 72° WNW 23:35:40 10° NNE
STARLINK-1365 3.5 23:31:12 49° S 23:31:44 54° SSE 23:35:29 10° ENE
STARLINK-1230 3.8 23:29:16 10° WNW 23:33:25 73° NNE 23:37:33 10° ESE
STARLINK-1390 3.5 23:33:34 49° S 23:34:07 54° SSE 23:37:51 10° ENE
Cosmos 1697 Rocket 4.3 23:32:47 17° SE 23:35:20 23° ESE 23:39:39 10° NE
Cosmos 2084 3.4 23:33:37 32° SW 23:35:37 88° SE 23:40:07 10° NE
STARLINK-1154 3.9 23:32:04 10° WNW 23:36:03 46° SW 23:36:35 43° S
Cosmos 1812 Rocket 4.5 23:32:08 10° N 23:36:25 43° ENE 23:38:55 22° SE
Cosmos 1626 2.0 23:36:00 47° SSW 23:36:59 80° W 23:40:43 10° N
BREEZE-M R/B 3.6 23:31:45 15° SW 23:37:02 48° SSE 23:40:36 10° E
STARLINK-1243 3.7 23:34:16 10° WNW 23:38:25 76° NNE 23:42:34 10° ESE
Cosmos 2227 Rocket 2.4 23:33:31 10° NNW 23:39:13 72° ENE 23:43:29 18° SE
Okean 1-7 Rocket 3.6 23:37:39 36° SSW 23:39:26 74° W 23:44:00 10° N
ATLAS CENTAUR R/B 2.8 23:35:42 11° WSW 23:39:34 36° NW 23:43:20 10° NNE
Cosmos 2369 Rocket 4.5 23:35:30 10° W 23:39:43 21° NW 23:43:56 10° N
STARLINK-1197 3.9 23:37:03 10° WNW 23:40:59 43° SW 23:41:21 42° SSW
CZ-4 R/B 3.8 23:37:01 10° NNE 23:41:49 75° ESE 23:43:50 34° S
STARLINK-1236 3.7 23:39:13 10° WNW 23:43:23 79° NNE 23:47:32 10° ESE
STARLINK-1198 4.0 23:42:03 10° WNW 23:45:56 40° SW 23:46:07 40° SSW
Cosmos 1602 Rocket 4.1 23:47:23 30° SSE 23:49:08 49° E 23:53:19 10° NNE
Landsat 4 4.4 23:46:06 10° N 23:49:40 44° WNW 23:51:00 30° WSW
SL-08 ROCKET BODY 4.5 23:46:46 27° S 23:49:58 67° E 23:55:46 10° NNE
STARLINK-1199 4.1 23:47:04 10° WNW 23:50:55 37° SW 23:50:56 37° SW
STARLINK-1269 3.6 23:49:12 10° WNW 23:53:22 86° NNE 23:57:31 10° ESE
Meteor 2-21 Rocket 4.5 23:50:06 28° SSW 23:53:32 77° W 23:59:46 10° N
STARLINK-1210 4.3 23:52:04 10° WNW 23:55:41 35° SW 23:55:41 35° SW
